FALCON 9 DEB (45791 NORAD) Tracking and Keplerian Element Data

This shows tracking and keplerian element data for the satellite.

Feedback or suggestion? Click here.




ElementValue
Catalog45791
NameFALCON 9 DEB
Epoch Orbit444
Epoch Day192.11585017
Epoch Year2020
RAAN160.9822
Inclination52.9903
Eccentricity0.0075648
Argument of Perigee144.6842
Mean Anonmoly215.9236
Mean Motion16.08585371
Decay Rate0.00406699
L11 45791U 20038BP 20192.11585017 .00406699 11535-4 29923-3 0 9992
L22 45791 52.9903 160.9822 0075648 144.6842 215.9236 16.08585371 4447

Live tracking and technical data element details for FALCON 9 DEB (NORAD 45791). FALCON 9 DEB can be tracked NOW for your location showing map with azimuth and elevation plus other details from your city location.

Track the satellite on the map from your city or location and see movement details for azimuth, elevation, latitude, longitude, range, height, and movement on the map or in text.







IsCatalogInMostPopularTable: catalog: 45791, numindb: 6
Update: records affected: 1



GetName: 45791 FALCON 9 DEB

Hit Count: updated at: Fri, 10 Jul 2020 17:09:04 GMT